N851TB EDDH-EDDV

Flight info

Callsign N851TB
Flight time N/A
Altitude 20000
Route IDEKO7G IDEKO N850 NIE NIE1R
Aircraft TBM8/L-SDFGRWY/S

Departure

Time 2026-04-24 20:52
Airport Hamburg Helmut Schmidt Airport (EDDH)

Arrival

Time N/A
Airport Hannover Airport (EDDV)
Time Latitude Longitude Altitude Speed Heading
2026-04-24 20:24 53.62670 9.98953 46 ft 0 kts 63°
2026-04-24 20:48 53.62677 9.98958 46 ft 5 kts 355°
2026-04-24 20:49 53.62685 9.98933 46 ft 11 kts 281°
2026-04-24 20:49 53.62725 9.98852 46 ft 4 kts 330°
2026-04-24 20:49 53.62763 9.98818 46 ft 12 kts 332°
2026-04-24 20:49 53.62814 9.98808 46 ft 11 kts 46°
2026-04-24 20:50 53.62887 9.98954 46 ft 16 kts 51°
2026-04-24 20:50 53.62968 9.99109 46 ft 21 kts 47°
2026-04-24 20:50 53.63055 9.99250 46 ft 6 kts 39°
2026-04-24 20:50 53.63072 9.99276 46 ft 2 kts 45°
2026-04-24 20:51 53.63090 9.99303 46 ft 9 kts 28°
2026-04-24 20:51 53.63161 9.99328 47 ft 11 kts 12°
2026-04-24 20:51 53.63260 9.99356 48 ft 20 kts 358°
2026-04-24 20:51 53.63502 9.99197 48 ft 65 kts 333°
2026-04-24 20:52 53.64075 9.98698 75 ft 113 kts 327°
2026-04-24 20:52 53.64793 9.98031 390 ft 125 kts 326°
2026-04-24 20:52 53.65594 9.97286 826 ft 137 kts 324°
2026-04-24 20:52 53.66420 9.96450 1348 ft 141 kts 326°
2026-04-24 20:53 53.67290 9.95689 1894 ft 143 kts 330°
2026-04-24 20:53 53.68213 9.95018 2315 ft 151 kts 334°
2026-04-24 20:53 53.69243 9.94237 2352 ft 171 kts 334°
2026-04-24 20:53 53.70238 9.93408 3024 ft 154 kts 330°
2026-04-24 20:54 53.71118 9.92160 3116 ft 173 kts 304°
2026-04-24 20:54 53.71481 9.90245 3477 ft 180 kts 279°
2026-04-24 20:54 53.71203 9.88125 3906 ft 190 kts 256°
2026-04-24 20:54 53.70779 9.86031 4378 ft 188 kts 258°
2026-04-24 20:55 53.70377 9.83935 4831 ft 188 kts 258°
2026-04-24 20:55 53.69963 9.81832 5241 ft 189 kts 257°
2026-04-24 20:55 53.69544 9.79721 5649 ft 191 kts 257°
2026-04-24 20:55 53.69122 9.77588 6053 ft 192 kts 257°
2026-04-24 20:56 53.68697 9.75444 6453 ft 194 kts 257°
2026-04-24 20:56 53.68272 9.73282 6833 ft 195 kts 258°
2026-04-24 20:56 53.67846 9.71113 7238 ft 195 kts 258°
2026-04-24 20:56 53.67400 9.68949 7626 ft 197 kts 251°
2026-04-24 20:57 53.66738 9.66893 7983 ft 203 kts 244°
2026-04-24 20:57 53.65772 9.65094 8368 ft 215 kts 222°
2026-04-24 20:57 53.64361 9.64115 8746 ft 226 kts 198°
2026-04-24 20:57 53.62788 9.63763 9121 ft 232 kts 183°
2026-04-24 20:58 53.61211 9.64494 9486 ft 239 kts 156°
2026-04-24 20:58 53.59710 9.65729 9842 ft 240 kts 154°
2026-04-24 20:58 53.58192 9.66994 10014 ft 251 kts 154°
2026-04-24 20:58 53.56589 9.68329 10024 ft 263 kts 154°
2026-04-24 20:59 53.54921 9.69712 10029 ft 271 kts 154°
2026-04-24 20:59 53.53169 9.70927 10029 ft 275 kts 162°
2026-04-24 20:59 53.51344 9.71961 10029 ft 278 kts 163°